Zurück zum Katalog

SATGUS

AktivWissenschaftSSO
NORAD 62713·PAYLOAD·🇺🇸 United States

Gestartet Jan 14, 2025 von Vandenberg Space Force Base

Loading…

Nächste Überflüge (nächste 24 Stunden)

TLE

AktuellSource: Space-Track

Epoche: Sep 14, 2026, 05:12 UTC

1 62713U 25009DJ  26257.21706012  .00004739  00000-0  36395-3 0  9998
2 62713  97.6904 337.7669 0004923 144.5879 215.5674 15.02227788 90925

Verfolge SATGUS in Echtzeit mit AllMySat

Download on the App Store